TimeCST,TemperatureF,Dew PointF,Humidity,Sea Level PressureIn,VisibilityMPH,Wind Direction,Wind SpeedMPH,Gust SpeedMPH,PrecipitationIn,Events,Conditions,WindDirDegrees,DateUTC
12:53 AM,28.0,25.0,88,30.13,9.0,West,10.4,-,N/A,,Clear,270,2013-02-12 06:53:00
1:53 AM,28.0,24.1,85,30.14,8.0,West,8.1,-,N/A,,Clear,270,2013-02-12 07:53:00
2:53 AM,26.1,23.0,88,30.14,8.0,West,6.9,-,N/A,,Clear,270,2013-02-12 08:53:00
3:53 AM,25.0,21.9,88,30.14,6.0,WSW,6.9,-,N/A,,Clear,250,2013-02-12 09:53:00
4:53 AM,24.1,21.0,88,30.14,6.0,WSW,6.9,-,N/A,,Clear,250,2013-02-12 10:53:00
5:53 AM,23.0,21.0,92,30.14,6.0,West,5.8,-,N/A,,Clear,270,2013-02-12 11:53:00
6:53 AM,23.0,21.0,92,30.15,4.0,WSW,8.1,-,N/A,,Clear,240,2013-02-12 12:53:00
7:53 AM,27.0,25.0,92,30.15,5.0,SW,5.8,-,N/A,,Clear,230,2013-02-12 13:53:00
8:53 AM,30.0,26.1,85,30.15,6.0,WNW,8.1,-,N/A,,Clear,290,2013-02-12 14:53:00
9:11 AM,30.2,26.6,86,30.13,6.0,West,6.9,-,N/A,,Scattered Clouds,270,2013-02-12 15:11:00
9:39 AM,30.2,26.6,86,30.13,7.0,WNW,8.1,-,N/A,,Mostly Cloudy,300,2013-02-12 15:39:00
9:53 AM,30.9,26.1,82,30.15,7.0,WNW,9.2,-,N/A,,Mostly Cloudy,290,2013-02-12 15:53:00
10:53 AM,30.9,26.1,82,30.13,6.0,WNW,9.2,-,N/A,,Haze,290,2013-02-12 16:53:00
11:53 AM,30.9,26.1,82,30.11,6.0,WNW,6.9,-,N/A,,Haze,290,2013-02-12 17:53:00
12:53 PM,33.1,27.0,78,30.09,7.0,West,8.1,-,N/A,,Mostly Cloudy,260,2013-02-12 18:53:00
1:53 PM,34.0,28.0,79,30.09,8.0,WNW,6.9,-,N/A,,Mostly Cloudy,300,2013-02-12 19:53:00
2:15 PM,35.6,28.4,75,30.06,8.0,WNW,6.9,-,N/A,,Scattered Clouds,290,2013-02-12 20:15:00
2:53 PM,34.0,28.0,79,30.09,8.0,WNW,10.4,-,N/A,,Scattered Clouds,290,2013-02-12 20:53:00
3:53 PM,34.0,27.0,75,30.06,8.0,WNW,4.6,-,N/A,,Partly Cloudy,300,2013-02-12 21:53:00
4:53 PM,33.1,27.0,78,30.04,8.0,NW,4.6,-,N/A,,Clear,310,2013-02-12 22:53:00
5:53 PM,30.9,26.1,82,30.02,8.0,Calm,Calm,-,N/A,,Clear,0,2013-02-12 23:53:00
6:53 PM,30.0,27.0,88,30.03,8.0,Calm,Calm,-,N/A,,Clear,0,2013-02-13 00:53:00
7:53 PM,30.0,27.0,88,30.00,8.0,Calm,Calm,-,N/A,,Clear,0,2013-02-13 01:53:00
8:53 PM,28.9,27.0,92,29.99,7.0,Calm,Calm,-,N/A,,Clear,0,2013-02-13 02:53:00
9:53 PM,28.0,26.1,92,29.98,6.0,Calm,Calm,-,N/A,,Clear,0,2013-02-13 03:53:00
10:53 PM,28.9,27.0,92,29.96,6.0,Calm,Calm,-,N/A,,Clear,0,2013-02-13 04:53:00
11:53 PM,28.9,27.0,92,29.95,5.0,Calm,Calm,-,N/A,,Clear,0,2013-02-13 05:53:00